Weather History for KPVC - March, 2013

Change the Weather History Date:

Saturday, March 9, 2013

  Actual Average Record
Temperature  
Mean Temperature 37 °F -  
Max Temperature 39 °F 39 °F 60 °F (2002)
Min Temperature 35 °F 28 °F 12 °F (2007)
Degree Days  
Heating Degree Days 28    
Moisture  
Dew Point 30 °F    
Average Humidity 76    
Maximum Humidity 87    
Minimum Humidity 65    
Precipitation  
Precipitation 0.00 in - - ()
Sea Level Pressure  
Sea Level Pressure 30.23 in    
Wind  
Wind Speed 22 mph (NE)    
Max Wind Speed 29 mph    
Max Gust Speed 40 mph    
Visibility 10 miles    
Events      
Averages and records for this station are not official NWS values.
T = Trace of Precipitation, MM = Missing Value Source: NWS Daily Summary

Daily Weather History Graph

Daily Weather History Graph

Search for Another Location

Airport or City:

Trip Planner

Search our weather history database for the weather conditions in past years. The results will help you decide how hot, cold, wet, or windy it might be!

Date:

Astronomy

Mar. 09, 2013 Rise Set
Actual Time 6:02 AM EST 5:40 PM EST
Civil Twilight 5:34 AM EST 6:08 PM EST
Nautical Twilight 5:02 AM EST 6:41 PM EST
Astronomical Twilight 4:29 AM EST 7:13 PM EST
Moon 4:26 AM EST (3/9) 3:37 PM EST (3/9)
Length of Visible Light 12h 33m
Length of Day
11h 38m
Waning Crescent, 5% of the Moon is Illuminated
Mar 9
Waning Crescent
Mar 11
New
Mar 19
First Quarter
Mar 27
Full
Apr 3
Last Quarter

Hourly Weather History & Observations

Time (EST) Temp. Windchill Dew Point Humidity Pressure Visibility Wind Dir Wind Speed Gust Speed Precip Events Conditions
12:15 AM 39.2 °F 27.8 °F 28.4 °F 65% 30.09 in 10.0 mi NNE 27.6 mph 40.3 mph N/A   Scattered Clouds
12:35 AM 39.2 °F 27.8 °F 30.2 °F 70% 30.09 in 10.0 mi NNE 27.6 mph 35.7 mph N/A   Partly Cloudy
12:55 AM 39.2 °F 27.6 °F 28.4 °F 65% 30.10 in 10.0 mi NNE 28.8 mph 36.8 mph N/A   Clear
1:35 AM 37.4 °F 25.6 °F 30.2 °F 75% 30.10 in 10.0 mi NNE 26.5 mph 35.7 mph N/A   Clear
1:55 AM 37.4 °F 25.9 °F 28.4 °F 70% 30.10 in 10.0 mi NNE 25.3 mph 33.4 mph N/A   Clear
2:15 AM 37.4 °F 25.9 °F 28.4 °F 70% 30.10 in 10.0 mi NNE 25.3 mph 35.7 mph N/A   Clear
2:35 AM 37.4 °F 26.1 °F 28.4 °F 70% 30.10 in 10.0 mi NNE 24.2 mph 36.8 mph N/A   Clear
2:55 AM 37.4 °F 25.9 °F 30.2 °F 75% 30.10 in 10.0 mi NNE 25.3 mph 33.4 mph N/A   Clear
3:15 AM 37.4 °F 26.6 °F 30.2 °F 75% 30.10 in 10.0 mi NNE 21.9 mph 33.4 mph N/A   Scattered Clouds
3:55 AM 37.4 °F 25.9 °F 30.2 °F 75% 30.11 in 10.0 mi NNE 25.3 mph 34.5 mph N/A   Mostly Cloudy
4:15 AM 37.4 °F 26.4 °F 30.2 °F 75% 30.12 in 9.0 mi NNE 23.0 mph 34.5 mph N/A   Mostly Cloudy
4:35 AM 37.4 °F 26.6 °F 30.2 °F 75% 30.13 in 10.0 mi NNE 21.9 mph 32.2 mph N/A   Overcast
4:55 AM 37.4 °F 26.1 °F 30.2 °F 75% 30.13 in 10.0 mi NNE 24.2 mph 35.7 mph N/A   Mostly Cloudy
5:15 AM 35.6 °F 23.2 °F 30.2 °F 81% 30.14 in 10.0 mi NNE 26.5 mph 32.2 mph N/A   Mostly Cloudy
5:35 AM 35.6 °F 23.2 °F 30.2 °F 81% 30.15 in 10.0 mi NNE 26.5 mph 35.7 mph N/A   Overcast
6:15 AM 35.6 °F 24.2 °F 30.2 °F 81% 30.16 in 9.0 mi NNE 21.9 mph 32.2 mph N/A   Mostly Cloudy
6:35 AM 35.6 °F 24.5 °F 30.2 °F 81% 30.17 in 10.0 mi NNE 20.7 mph 31.1 mph N/A   Mostly Cloudy
6:55 AM 35.6 °F 23.7 °F 30.2 °F 81% 30.18 in 10.0 mi NNE 24.2 mph 31.1 mph N/A   Overcast
7:15 AM 35.6 °F 23.4 °F 30.2 °F 81% 30.19 in 10.0 mi NNE 25.3 mph 32.2 mph N/A   Overcast
7:35 AM 35.6 °F 24.0 °F 28.4 °F 75% 30.20 in 10.0 mi NNE 23.0 mph 29.9 mph N/A   Overcast
7:55 AM 35.6 °F 24.0 °F 30.2 °F 81% 30.21 in 10.0 mi NNE 23.0 mph 28.8 mph N/A   Overcast
8:15 AM 35.6 °F 24.2 °F 30.2 °F 81% 30.21 in 10.0 mi NE 21.9 mph 27.6 mph N/A   Overcast
8:35 AM 37.4 °F 27.2 °F 30.2 °F 75% 30.22 in 10.0 mi NE 19.6 mph 27.6 mph N/A   Overcast
8:55 AM 37.4 °F 26.9 °F 30.2 °F 75% 30.22 in 10.0 mi NE 20.7 mph 28.8 mph N/A   Overcast
9:15 AM 35.6 °F 24.5 °F 30.2 °F 81% 30.22 in 10.0 mi NE 20.7 mph 28.8 mph N/A   Overcast
9:35 AM 37.4 °F 27.5 °F 30.2 °F 75% 30.22 in 10.0 mi NNE 18.4 mph 27.6 mph N/A   Overcast
9:55 AM 35.6 °F 24.5 °F 30.2 °F 81% 30.22 in 10.0 mi NNE 20.7 mph 28.8 mph N/A   Overcast
10:15 AM 37.4 °F 26.6 °F 30.2 °F 75% 30.23 in 10.0 mi NNE 21.9 mph 26.5 mph N/A   Overcast
10:35 AM 37.4 °F 27.5 °F 30.2 °F 75% 30.23 in 10.0 mi NE 18.4 mph 24.2 mph N/A   Overcast
10:55 AM 37.4 °F 28.2 °F 30.2 °F 75% 30.23 in 10.0 mi NNE 16.1 mph 26.5 mph N/A   Overcast
11:15 AM 37.4 °F 27.8 °F 30.2 °F 75% 30.24 in 10.0 mi NNE 17.3 mph 25.3 mph N/A   Overcast
11:35 AM 37.4 °F 26.4 °F 30.2 °F 75% 30.24 in 10.0 mi NNE 23.0 mph 26.5 mph N/A   Overcast
12:15 PM 37.4 °F 27.5 °F 30.2 °F 75% 30.25 in 9.0 mi NE 18.4 mph 25.3 mph N/A   Overcast
12:35 PM 37.4 °F 27.8 °F 30.2 °F 75% 30.25 in 10.0 mi NNE 17.3 mph 26.5 mph N/A   Overcast
12:55 PM 37.4 °F 27.8 °F 30.2 °F 75% 30.25 in 10.0 mi NNE 17.3 mph 23.0 mph N/A   Overcast
1:15 PM 37.4 °F 27.2 °F 30.2 °F 75% 30.26 in 10.0 mi NE 19.6 mph 25.3 mph N/A   Overcast
1:35 PM 37.4 °F 27.5 °F 30.2 °F 75% 30.26 in 10.0 mi NE 18.4 mph 25.3 mph N/A   Overcast
1:55 PM 37.4 °F 27.8 °F 30.2 °F 75% 30.26 in 10.0 mi NNE 17.3 mph 26.5 mph N/A   Overcast
2:15 PM 37.4 °F 27.8 °F 28.4 °F 70% 30.26 in 10.0 mi NE 17.3 mph 26.5 mph N/A   Overcast
2:35 PM 37.4 °F 26.9 °F 30.2 °F 75% 30.26 in 10.0 mi NNE 20.7 mph 25.3 mph N/A   Overcast
2:55 PM 37.4 °F 27.8 °F 30.2 °F 75% 30.26 in 9.0 mi NE 17.3 mph - N/A   Overcast
3:15 PM 37.4 °F 28.5 °F 30.2 °F 75% 30.26 in 10.0 mi NE 15.0 mph 24.2 mph N/A   Overcast
3:35 PM 37.4 °F 27.8 °F 30.2 °F 75% 30.26 in 10.0 mi NE 17.3 mph 21.9 mph N/A   Mostly Cloudy
3:55 PM 37.4 °F 28.5 °F 30.2 °F 75% 30.26 in 10.0 mi NE 15.0 mph 24.2 mph N/A   Mostly Cloudy
4:15 PM 37.4 °F 28.2 °F 30.2 °F 75% 30.27 in 10.0 mi NE 16.1 mph 23.0 mph N/A   Mostly Cloudy
4:35 PM 37.4 °F 27.5 °F 30.2 °F 75% 30.27 in 10.0 mi NE 18.4 mph 23.0 mph N/A   Mostly Cloudy
4:55 PM 37.4 °F 27.8 °F 28.4 °F 70% 30.27 in 10.0 mi NE 17.3 mph 21.9 mph N/A   Mostly Cloudy
5:15 PM 37.4 °F 28.5 °F 30.2 °F 75% 30.28 in 10.0 mi NE 15.0 mph - N/A   Partly Cloudy
5:35 PM 37.4 °F 28.9 °F 30.2 °F 75% 30.29 in 9.0 mi NE 13.8 mph 23.0 mph N/A   Partly Cloudy
5:55 PM 37.4 °F 28.9 °F 30.2 °F 75% 30.30 in 8.0 mi NE 13.8 mph 19.6 mph N/A   Scattered Clouds
6:15 PM 37.4 °F 28.5 °F 30.2 °F 75% 30.31 in 10.0 mi NE 15.0 mph - N/A   Mostly Cloudy
6:35 PM 37.4 °F 28.5 °F 32.0 °F 81% 30.31 in 10.0 mi NE 15.0 mph - N/A   Scattered Clouds
6:55 PM 37.4 °F 29.3 °F 32.0 °F 81% 30.32 in 8.0 mi NE 12.7 mph 17.3 mph N/A   Partly Cloudy
7:15 PM 37.4 °F 28.5 °F 30.2 °F 75% 30.32 in 10.0 mi NE 15.0 mph - N/A   Clear
7:35 PM 37.4 °F 28.9 °F 32.0 °F 81% 30.31 in 10.0 mi ENE 13.8 mph 20.7 mph N/A   Clear
7:55 PM 37.4 °F 28.2 °F 32.0 °F 81% 30.31 in 10.0 mi ENE 16.1 mph 20.7 mph N/A   Clear
8:35 PM 37.4 °F 29.8 °F 30.2 °F 75% 30.33 in 9.0 mi NE 11.5 mph - N/A   Clear
8:55 PM 37.4 °F 28.2 °F 32.0 °F 81% 30.32 in 10.0 mi NE 16.1 mph 21.9 mph N/A   Clear
9:15 PM 37.4 °F 28.9 °F 30.2 °F 75% 30.32 in 10.0 mi NE 13.8 mph - N/A   Clear
9:35 PM 37.4 °F 29.3 °F 32.0 °F 81% 30.32 in 10.0 mi ENE 12.7 mph 23.0 mph N/A   Clear
9:55 PM 37.4 °F 28.5 °F 32.0 °F 81% 30.32 in 9.0 mi ENE 15.0 mph 21.9 mph N/A   Clear
10:15 PM 37.4 °F 28.2 °F 30.2 °F 75% 30.32 in 10.0 mi ENE 16.1 mph 19.6 mph N/A   Clear
10:55 PM 37.4 °F 29.3 °F 33.8 °F 87% 30.34 in 9.0 mi NE 12.7 mph 19.6 mph N/A   Clear
11:15 PM 37.4 °F 28.9 °F 33.8 °F 87% 30.33 in 9.0 mi NE 13.8 mph - N/A   Scattered Clouds
11:35 PM 37.4 °F 29.3 °F 32.0 °F 81% 30.33 in 10.0 mi ENE 12.7 mph - N/A   Scattered Clouds
11:55 PM 37.4 °F 28.9 °F 32.0 °F 81% 30.33 in 10.0 mi ENE 13.8 mph 18.4 mph N/A   Mostly Cloudy